DELTA 1 DEB, 10652

Orbit data source: Space-Track

DELTA 1 DEB, 10652 is space debris in LEO originally from a launch on Thu, 29 Jul 1976 UTC launched from the Air Force Western Test Range (AFWTR). Debris objects in space refer to the collection of defunct objects orbiting the Earth. Examples of debris include non-operational satellites, rocket bodies, and fragments generated from explosions, collisions, or faulty payload assembly.

Loading next visibility...
Identifier
10652, 1976-077N
Orbit
LEO
Country
Flag of USUS
Related business
Manufacturer
Unknown
Mission
Spacecraft
Bus & Motor
Unknown
Mass
Unknown
Launch date (UTC)
1976-07-29 (50 years ago)
Launch vehicle
Unknown
Launch site
Air Force Western Test Range (AFWTR)
Object type
Payload
Rocket body
Debris
Shape & HBR
Unknown shape, 0.1 m
Radar Cross Section
Small (<0.1 m²)

Expand to show TLE details & history
Last TLE update: 2 days ago

TLE from 2 days ago
0 DELTA 1 DEB
1 10652U 76077N   26104.10154796  .00000063  00000-0  12398-2 0  9991
2 10652 102.8697 353.9859 0254676 356.3048   3.6107 11.97634156144368
Epoch: 2026-04-14T02:26Z
TLE epoch observation values (Epoch: 2026-04-14T02:26:13.743Z)
Latitude
-0.00007°
Longitude
115.14602°
Altitude
1,488.814 km
Speed
7.209 km/s
True Right ascension
23h 35m 56s
True Declination
0° 00' 00"
Sunlit
Object was in daylight at epoch
Visualization orbit readout
Latitude
Unknown
Longitude
Unknown
Altitude
Unknown
Speed
Unknown
Apparent Right ascension
Unknown
Apparent Declination
Unknown
Sunlit
N/A
Visualization observer readout
Local Sidereal Time
18:03:02
Azimuth
Unknown
Elevation
Unknown
Doppler factor
Unknown
Orbital elements
Apogee altitude
1,894.605 km
Perigee altitude
1,483.696 km
Semi-major axis
8,067.288 km
Eccentricity
0.02547
Inclination
102.8697°
RAAN
353.9859°
Arg. of periapsis
356.3048°
True anomaly
3.80051°
Mean anomaly
3.6107°
Eccentric anomaly
3.70499°
Mean motion
2.99538 °/min
Orbital period
120.19 mins
BSTAR
0.0012398
Loading maneuver chart data...
Computing Atmospheric mass density...
Loading historical data...
Loading historical data...
Loading historical data...
Loading historical data...
Loading historical data...
Loading historical data...
Loading historical data...

Documentation

Showing up to 5 results
|